This demonstration page uses our WeatherBlox Daily Observations layout. Learn more.

Left ArrowRight Arrow

Hourly Observations for August 11, 2018

Temp ( °F °C ) Dew Point ( °F °C ) Humidity (%) Winds ( mph kmh ) Pressure ( in mb ) Visibility ( mi km ) Precip ( " mm )
12:52 am 00:52 Clear 70 21.1 65 18.3 84 84 Calm 29.95 1014 10 16 0.00 0.00
1:52 am 01:52 Clear 70 21.1 65 18.3 84 84 Calm 29.94 1014 10 16 0.00 0.00
2:52 am 02:52 Clear 68 20 64 17.8 87 87 SSE 6 9 29.95 1014 10 16 0.00 0.00
3:52 am 03:52 Clear 67 19.4 64 17.8 91 91 S 3 6 29.95 1014 9 14 0.00 0.00
4:52 am 04:52 Clear 69 20.6 64 17.8 84 84 SSE 3 6 29.96 1014 10 16 0.00 0.00
5:52 am 05:52 Clear 69 20.6 64 17.8 84 84 Calm 29.97 1015 10 16 0.00 0.00
6:52 am 06:52 Sunny 68 20 64 17.8 87 87 Calm 29.98 1015 10 16 0.00 0.00
7:52 am 07:52 Sunny 72 22.2 66 18.9 82 82 Calm 30.01 1016 10 16 0.00 0.00
8:52 am 08:52 Sunny 76 24.4 67 19.4 74 74 Calm 30.02 1017 10 16 0.00 0.00
9:52 am 09:52 Sunny 81 27.2 68 20 65 65 NNW 3 6 30.02 1017 10 16 0.00 0.00
10:52 am 10:52 Sunny 84 28.9 67 19.4 57 57 N 5 7 30.03 1017 9 14 0.00 0.00
11:52 am 11:52 Sunny 87 30.6 67 19.4 51 51 NE 5 7 30.02 1017 10 16 0.00 0.00
12:52 pm 12:52 Mostly Cloudy 87 30.6 63 17.2 45 45 Calm 30.01 1016 10 16 0.00 0.00
1:52 pm 13:52 Sunny 91 32.8 63 17.2 39 39 N 5 7 29.98 1015 10 16 0.00 0.00
2:52 pm 14:52 Mostly Sunny 91 32.8 62 16.7 38 38 Calm 29.97 1015 10 16 0.00 0.00
3:52 pm 15:52 Sunny 93 33.9 57 13.9 30 30 NW 8 13 29.95 1014 10 16 0.00 0.00
4:52 pm 16:52 Sunny 93 33.9 60 15.6 33 33 N 5 7 29.94 1014 10 16 0.00 0.00
5:52 pm 17:52 Sunny 91 32.8 59 15 34 34 WNW 7 11 29.95 1014 10 16 0.00 0.00
6:52 pm 18:52 Sunny 88 31.1 66 18.9 48 48 SW 9 15 29.94 1014 10 16 0.00 0.00
7:52 pm 19:52 Mostly Sunny 82 27.8 68 20 63 63 S 7 11 29.95 1014 10 16 0.00 0.00
8:52 pm 20:52 Clear 80 26.7 66 18.9 62 62 S 5 7 29.97 1015 10 16 0.00 0.00
9:52 pm 21:52 Clear 78 25.6 66 18.9 67 67 SSE 8 13 30.00 1016 10 16 0.00 0.00
10:52 pm 22:52 Clear 75 23.9 67 19.4 76 76 S 3 6 30.01 1016 10 16 0.00 0.00
11:52 pm 23:52 Mostly Cloudy 76 24.4 67 19.4 74 74 E 3 6 30.01 1016 10 16 0.00 0.00

Powered by AerisWeather